Find Starlink 36989

NORAD ID: 68277 Int'l Des: 2026-055 Owner: SPXS Country: US Constellation: starlink operational
LEOCIRCULAR

当前视图

正在加载3D地球...

About Starlink 36989

Starlink 36989 (NORAD 68277) is a starlink constellation satellite (v2 mini) launched Mar 19, 2026 by SPXS of US. It operates in LEO, CIRCULAR orbit with a mass of 575.00 kg.

关于 Starlink 36989

正在加载描述...

即将过境

Passes for default location (London). Set your location on the main map for personalized predictions.

高度历史

Loading altitude history...

两行轨道根数

1 68277U 26055R 26169.39184214 .00015602 00000-0 47181-3 0 9992
2 68277 53.1574 209.7404 0001337 88.7651 271.3504 15.34408344 15376
Epoch: Jun 18, 2026 • Age: 10 hours

当前状态

高度 466.9 km
速度 7.64 km/s
星下点 46.62°N, 139.5°E
发射日期 Mar 19, 2026
运行时间 0.2 years
类型 internet

技术详情

分类 Payload
质量 575.00 kg
干质量 530.00 kg
总质量 575.00 kg
长度 0.30 m
直径 4.10 m
跨度 29.00 m
形状 Box + pan
制造商 SPXS
平台类型 Starlink V2MO
阶段状态 In Orbit
所有者/国家 SPXS/US

Most Searched